EW0079 Weather Reports


time (UTC)temp
F
wind
direction
speed
knots
gust
knots
rain 1hr
in
rain 24hr
in
rain mn
in
humidity
%
barometer
mb
20260508071512 48 109 0.0 0.9 0.00 3.07 0.00 1 1015.4
20260508070013 47 146 0.9 1.7 0.00 3.07 0.00 1 1015.4
20260508064512 47 169 0.0 1.7 0.00 3.07 0.00 6 1015.4
20260508063013 47 0 0.0 0.0 0.00 3.07 0.00 1 1015.1
20260508061513 46 0 0.0 0.0 0.00 3.07 0.00 1 1015.1
20260508060012 46 0 0.0 0.0 0.00 3.07 0.00 1 1014.9
20260508053012 46 133 0.0 0.9 0.00 3.07 0.00 1 1015.1
20260508051513 46 119 0.0 0.9 0.00 3.07 0.00 1 1014.8
20260508050012 45 90 0.0 0.9 0.00 3.07 0.00 1 1014.7
20260508044513 45 121 0.0 0.9 0.00 3.07 0.00 1 1014.6
20260508043012 45 132 0.9 3.5 0.00 3.07 0.00 1 1014.6
20260508041512 45 119 0.9 2.6 0.00 3.07 0.00 1 1014.5
20260508040013 45 102 1.7 5.2 0.00 3.07 0.00 1 1014.4
20260508031512 45 76 3.5 7.0 0.00 3.07 0.00 1 1014.0
20260508030013 45 88 2.6 5.2 0.00 3.07 0.00 1 1014.4
20260508024512 45 85 1.7 7.0 0.00 3.07 0.00 1 1014.3
20260508023012 45 87 2.6 6.1 0.00 3.07 0.00 1 1014.3
20260508021513 45 79 2.6 6.1 0.00 3.07 0.00 1 1014.2
20260508020012 45 83 3.5 7.0 0.00 3.07 0.00 1 1014.6
20260508014512 45 85 1.7 5.2 0.00 3.07 0.00 1 1014.5
20260508011512 45 83 2.6 5.2 0.00 3.07 0.00 1 1014.8
20260508010012 46 85 2.6 6.1 0.00 3.07 0.00 1 1015.1
20260508004513 46 75 4.3 7.8 0.00 3.07 0.00 1 1015.2
20260508003012 46 75 2.6 7.8 0.00 3.07 0.00 1 1015.3
20260508001512 46 80 2.6 5.2 0.00 3.07 0.00 1 1015.5
20260508000013 46 76 3.5 6.1 0.00 3.07 0.00 1 1015.7
20260507234513 46 73 1.7 6.1 0.00 3.07 0.00 1 1015.7
20260507233012 46 81 2.6 6.1 0.00 3.07 0.00 1 1015.9
20260507231513 46 80 1.7 6.1 0.00 3.07 0.00 1 1016.0
20260507223012 46 87 0.9 2.6 0.01 3.07 0.00 1 1016.3
20260507221513 46 86 1.7 4.3 0.01 3.07 0.00 1 1016.4
20260507220013 46 93 1.7 5.2 0.01 3.07 0.00 1 1016.4
20260507214513 46 98 2.6 7.8 0.00 3.06 3.06 1 1016.3
20260507213013 46 83 2.6 7.0 0.00 3.06 3.06 1 1016.3
20260507211513 47 89 3.5 7.8 0.00 3.06 3.06 1 1016.2
20260507210012 47 86 3.5 8.7 0.00 3.06 3.06 1 1015.9
20260507204513 47 83 2.6 7.0 0.00 3.06 3.06 1 1015.7
20260507201512 47 97 2.6 5.2 0.00 3.06 3.06 1 1015.5
20260507200013 47 99 1.7 5.2 0.00 3.06 3.06 1 1015.3
20260507194513 47 105 2.6 5.2 0.00 3.06 3.06 1 1015.0
20260507193013 47 117 1.7 3.5 0.00 3.06 3.06 1 1014.7
20260507191513 48 107 2.6 4.3 0.00 3.06 3.06 1 1014.3
20260507184513 49 110 3.5 9.6 0.00 3.06 3.06 1 1014.2
20260507183012 49 123 3.5 9.6 0.00 3.06 3.06 1 1014.0
20260507180013 49 100 5.2 11.3 0.00 3.06 3.06 1 1013.6
20260507174513 49 91 4.3 12.2 0.00 3.06 3.06 1 1013.9
20260507173012 48 76 4.3 11.3 0.00 3.06 3.06 1 1013.9
20260507171513 48 88 4.3 13.0 0.02 3.06 3.06 1 1014.0
20260507164512 48 101 2.6 7.8 0.16 3.06 3.06 1 1014.6
20260507163013 47 95 3.5 9.6 0.22 3.06 3.06 1 1014.6
20260507161513 48 91 0.9 4.3 0.29 3.05 3.05 1 1015.1
20260507160012 48 88 0.9 3.5 0.23 2.95 2.95 1 1015.6
20260507154513 48 118 3.5 6.1 0.20 2.91 2.91 1 1015.4
20260507153012 48 99 4.3 7.8 0.13 2.83 2.84 1 1015.1
20260507151513 49 94 6.1 13.0 0.04 2.75 2.75 1 1014.3
20260507150013 50 103 5.2 14.8 0.02 2.72 2.72 1 1014.3
20260507144513 52 97 4.3 11.3 0.00 2.71 2.71 27 1014.2
20260507143013 52 77 6.1 14.8 0.00 2.71 2.71 28 1014.1
20260507140013 53 71 7.8 14.8 0.01 2.71 2.71 35 1014.1
20260507131513 54 34 4.3 12.2 0.15 2.71 2.71 18 1014.1
20260507130013 53 12 3.5 7.8 0.20 2.70 2.70 15 1014.4
20260507124513 52 358 3.5 6.1 0.21 2.67 2.67 10 1014.4
20260507121512 49 11 0.9 4.3 0.38 2.56 2.56 1 1014.8
20260507120013 47 25 0.9 3.5 0.56 2.50 2.50 1 1015.1
20260507114512 46 341 0.9 3.5 0.75 2.46 2.46 1 1015.2
20260507113013 44 323 0.9 3.5 0.78 2.37 2.37 1 1015.4
20260507111512 42 353 0.0 0.9 1.14 2.17 2.17 1 1015.6
20260507110013 42 24 3.5 9.6 1.39 1.92 1.92 1 1015.5
20260507104513 43 30 1.7 7.8 1.39 1.71 1.71 1 1014.9
20260507103012 43 274 4.3 7.8 1.57 1.57 1.57 3 1015.5
20260507100012 49 107 1.7 1.7 0.54 0.54 0.54 47 1015.2
20260507093011 55 109 2.6 8.7 0.00 0.00 0.00 54 1015.2
20260507091511 54 107 5.2 9.6 0.00 0.00 0.00 51 1015.2
20260507090011 54 120 5.2 9.6 0.00 0.00 0.00 52 1015.3
20260507084511 55 132 6.1 11.3 0.00 0.00 0.00 54 1015.2
20260507083012 54 131 6.1 12.2 0.00 0.00 0.00 51 1015.2
20260507081511 53 130 6.1 14.8 0.00 0.00 0.00 39 1015.2
20260507080011 52 115 6.1 12.2 0.00 0.00 0.00 28 1015.0
20260507074511 52 118 6.1 13.0 0.00 0.00 0.00 26 1014.9